Location: Kitchener-Waterloo
(43.4500°N, 80.5000°W)
Time: 17:15:22
(UTC-04:00)

ISS - All Passes

Search period start: 23 July 2016 00:00
Search period end: 02 August 2016 00:00
Orbit: 401 x 404 km, 51.6° (Epoch: 23 July)

Date Brightness Start Highest point End Pass type
(mag) Time Alt. Az. Time Alt. Az. Time Alt. Az.
23 Jul - 01:01:27 10° W 01:04:35 43° NNW 01:07:43 10° NE visible
23 Jul - 02:39:07 10° NW 02:41:36 19° N 02:44:05 10° NE visible
23 Jul - 04:16:03 10° NW 04:18:49 24° NNE 04:21:33 10° ENE visible
23 Jul - 05:52:16 10° WNW 05:55:33 84° SSW 05:58:48 10° SE daylight
23 Jul - 07:30:36 10° WSW 07:31:29 11° SW 07:32:22 10° SW daylight
23 Jul - 22:33:34 10° S 22:35:32 15° SE 22:37:31 10° E night (unlit)
24 Jul - 00:08:21 10° WSW 00:11:36 72° NNW 00:14:51 10° NE visible
24 Jul - 01:45:49 10° WNW 01:48:27 22° NNW 01:51:06 10° NE visible
24 Jul - 03:23:07 10° NW 03:25:40 21° N 03:28:13 10° ENE visible
24 Jul - 04:59:23 10° NW 05:02:36 55° NNE 05:05:49 10° ESE visible
24 Jul - 06:36:19 10° W 06:38:48 20° SW 06:41:16 10° S daylight
24 Jul - 23:15:28 10° SW 23:18:42 63° SE 23:21:56 10° ENE night (unlit)
25 Jul - 00:52:28 10° W 00:55:20 27° NNW 00:58:13 10° NE visible
25 Jul - 02:30:05 10° NW 02:32:30 19° N 02:34:56 10° NE visible
25 Jul - 04:06:33 10° NW 04:09:36 35° NNE 04:12:38 10° E visible
25 Jul - 05:42:59 10° WNW 05:46:02 37° SW 05:49:04 10° SSE daylight
25 Jul - 22:22:55 10° SSW 22:25:52 33° SE 22:28:50 10° ENE visible
25 Jul - 23:59:11 10° W 00:02:16 38° NNW 00:05:21 10° NE visible
26 Jul - 01:36:53 10° NW 01:39:20 19° N 01:41:47 10° NE visible
26 Jul - 03:13:42 10° NW 03:16:31 26° NNE 03:19:20 10° ENE visible
26 Jul - 04:49:57 10° WNW 04:53:12 71° SW 04:56:26 10° SE visible
26 Jul - 21:30:50 10° S 21:33:08 18° SE 21:35:26 10° E visible
26 Jul - 23:06:02 10° WSW 23:09:16 61° NNW 23:12:30 10° NE visible
27 Jul - 00:43:36 10° WNW 00:46:10 21° N 00:48:45 10° NE visible
27 Jul - 02:20:47 10° NW 02:23:24 21° N 02:26:00 10° ENE visible
27 Jul - 03:57:02 10° NW 04:00:17 64° NNE 04:03:30 10° ESE visible
27 Jul - 05:34:11 10° W 05:36:24 17° SW 05:38:36 10° S visible
27 Jul - 22:13:06 10° SW 22:16:20 75° SSE 22:19:36 10° ENE visible
27 Jul - 23:50:14 10° WNW 23:53:02 26° NNW 23:55:51 10° NE visible
28 Jul - 01:27:46 10° NW 01:30:14 19° N 01:32:41 10° NE visible
28 Jul - 03:04:10 10° NW 03:07:16 39° NNE 03:10:22 10° E visible
28 Jul - 04:40:44 10° WNW 04:43:39 31° SW 04:46:34 10° SSE visible
28 Jul - 21:20:26 10° SSW 21:23:29 39° SE 21:26:34 10° ENE visible
28 Jul - 22:56:55 10° W 22:59:57 34° NNW 23:02:59 10° NE visible
29 Jul - 00:34:37 10° NW 00:37:03 19° N 00:39:29 10° NE visible
29 Jul - 02:11:19 10° NW 02:14:13 28° NNE 02:17:06 10° E visible
29 Jul - 03:47:37 10° WNW 03:50:50 59° SW 03:54:02 10° SE night (unlit)
29 Jul - 20:28:10 10° S 20:30:43 21° SE 20:33:16 10° E daylight
29 Jul - 22:03:44 10° WSW 22:06:56 53° NNW 22:10:08 10° NE visible
29 Jul - 23:41:21 10° WNW 23:43:52 20° N 23:46:25 10° NE visible
30 Jul - 01:18:26 10° NW 01:21:05 22° NNE 01:23:45 10° ENE visible
30 Jul - 02:54:39 10° NW 02:57:56 75° NNE 03:01:10 10° ESE night (unlit)
30 Jul - 04:32:08 10° W 04:33:59 14° SW 04:35:49 10° SSW night (unlit)
30 Jul - 19:36:52 10° SSE 19:38:01 11° SE 19:39:10 10° ESE daylight
30 Jul - 21:10:43 10° SW 21:13:58 88° SSE 21:17:14 10° ENE visible
30 Jul - 22:48:00 10° WNW 22:50:43 24° NNW 22:53:28 10° NE visible
31 Jul - 00:25:27 10° NW 00:27:57 20° N 00:30:25 10° NE visible
31 Jul - 02:01:47 10° NW 02:04:57 45° NNE 02:08:05 10° E visible
31 Jul - 03:38:28 10° WNW 03:41:15 26° SW 03:44:01 10° SSE night (unlit)
31 Jul - 20:17:57 10° SW 20:21:05 47° SE 20:24:15 10° ENE daylight
31 Jul - 21:54:39 10° W 21:57:38 31° NNW 22:00:36 10° NE visible
31 Jul - 23:32:20 10° NW 23:34:45 19° N 23:37:11 10° NE visible
01 Aug - 01:08:56 10° NW 01:11:53 30° NNE 01:14:50 10° E visible
01 Aug - 02:45:17 10° WNW 02:48:27 49° SW 02:51:36 10° SE night (unlit)
01 Aug - 19:25:34 10° SSW 19:28:18 25° SE 19:31:03 10° E daylight
01 Aug - 21:01:25 10° WSW 21:04:35 46° NNW 21:07:45 10° NE daylight
01 Aug - 22:39:05 10° WNW 22:41:35 20° N 22:44:04 10° NE visible
